Lexington Weather

Lexington, Massachusetts, USA

47°F
10/22/2019 2:37am 
  • Lexington Conditions: Mostly cloudy
  • Temperature: 46.8°F / 8.2°CWarmer 1.3°F than last hour.
  • Dew Point: 45.3°FIncreased 2.0°Fsince last hour.
  • Relative Humidity: 95%Increased 3.0% since last hour.
  • Wind: Calm, 10-min avg: Calm, gust: None
  • Barometer: 30.12 in Steady
  • Visibility: 9 miles
  • Rain Today: 0.00 in
  •   

Regional Weather Roundup
for Boston, MA

        
000
ASUS41 KBOX 190900
RWRBOX

REGIONAL WEATHER ROUNDUP
NATIONAL WEATHER SERVICE BOSTON/NORTON MA
500 AM EDT SAT OCT 19 2019

NOTE:  "FAIR" INDICATES FEW OR NO CLOUDS BELOW 12,000 FEET WITH NO 
SIGNIFICANT WEATHER AND/OR OBSTRUCTIONS TO VISIBILITY.

MAZALL-191000-
EASTERN MASSACHUSETTS
  
CITY           SKY/WX    TMP DP  RH WIND       PRES   REMARKS
BOSTON         FAIR      46  34  62 NW9       29.97R                  
BEVERLY        FAIR      39  33  79 W6        29.95R                  
LAWRENCE       FAIR      40  33  76 W7        29.98R                  
BEDFORD        FAIR      38  31  76 SW3       29.96R                  
BLUE HILL      NOT AVBL                                               
NORWOOD        FAIR      36  31  82 CALM      29.98R                  
MARSHFIELD     NOT AVBL                                               
PLYMOUTH       FAIR      40  35  83 W7        29.96R                  
TAUNTON        FAIR      39  34  82 W3        29.97R                  
NEW BEDFORD    FAIR      41  35  79 W7        29.97R                  
$$

MAZALL-191000-
CAPE COD AND THE ISLANDS
  
CITY           SKY/WX    TMP DP  RH WIND       PRES   REMARKS
FALMOUTH       CLEAR     41  36  81 NW6       29.96R                  
HYANNIS        NOT AVBL                                               
CHATHAM        NOT AVBL                                               
PROVINCETOWN   FAIR      48  39  71 NW16G22     N/A                   
NANTUCKET      FAIR      47  37  68 NW14      29.95R                  
MARTHAS VNYRD  FAIR      45  37  73 NW8       29.96S                  
$$
 
MAZALL-191000-
CENTRAL AND WESTERN MASSACHUSETTS
  
CITY           SKY/WX    TMP DP  RH WIND       PRES   REMARKS
WORCESTER      FAIR      35  32  88 W7        29.97R WCI  29          
FITCHBURG      FAIR      35  32  88 CALM      29.98R                  
ORANGE         FAIR      32  29  88 CALM      29.99R                  
SPRINGFIELD    FAIR      34  32  92 CALM      29.99R                  
WESTFIELD      FAIR      32  30  92 CALM      30.00R                  
NORTH ADAMS    FAIR      33  30  88 NW3       30.01S                  
PITTSFIELD     FAIR      36  30  79 CALM      29.98S                  
$$
 
RIZALL-191000-
RHODE ISLAND
  
CITY           SKY/WX    TMP DP  RH WIND       PRES   REMARKS
PROVIDENCE     FAIR      40  35  83 W8        30.00R                  
NEWPORT        FAIR      45  35  68 NW12      29.98R                  
BLOCK ISLAND   FAIR      46  36  68 NW9       30.01R                  
SMITHFIELD     FAIR     N/A N/A N/A W5        29.99R                  
WESTERLY       FAIR      40  36  86 CALM      30.02R                  
$$
 
CTZALL-191000-
CONNECTICUT
  
CITY           SKY/WX    TMP DP  RH WIND       PRES   REMARKS
BRADLEY INTL   FAIR      38  33  82 CALM      30.00S                  
HARTFORD       FAIR      41  34  76 CALM      30.01S                  
BRIDGEPORT     FAIR      41  35  79 CALM      30.02S                  
DANBURY        FAIR      34  33  96 CALM      30.02S                  
GROTON         NOT AVBL                                               
NEW HAVEN      FAIR      37  34  89 CALM      30.02R                  
CHESTER        FAIR      37  36  93 CALM      30.01R                  
MERIDEN        FAIR      33  31  92 CALM      30.02R                  
WILLIMANTIC    FAIR      37  34  89 CALM      30.02R                  
OXFORD         FAIR      37  33  85 CALM      30.00S                  
$$

MEZ002-015-021-024-NHZ003-005-008-011-012-014-VTZ005-008-191000-
NORTHERN NEW ENGLAND
  
CITY           SKY/WX    TMP DP  RH WIND       PRES   REMARKS
PORTLAND ME    FAIR      39  33  79 SW5       29.92R                  
BANGOR ME      FAIR      44  36  73 W7        29.84R                  
CONCORD NH     FAIR      41  32  70 NW7       29.96R                  
MANCHESTER NH  FAIR      44  33  65 CALM      29.95R                  
NASHUA NH      FAIR      36  34  92 CALM      29.98R                  
PORTSMOUTH NH  CLEAR     42  35  76 W8        29.93R                  
JAFFREY NH     FAIR      40  32  73 VRB5      29.96R                  
KEENE NH       FAIR      35  33  92 CALM      29.99R                  
BURLINGTON VT  CLOUDY    44  32  62 W6        30.01S                  
MT. WASHINGTON FOG       19  19 100 NW56        N/A  VSB 1/16WCI  -5  
$$

NYZ052-076-191000-
EASTERN NEW YORK
  
CITY           SKY/WX    TMP DP  RH WIND       PRES   REMARKS
ALBANY         FAIR      43  36  76 N3        30.04S                  
NEW YORK CITY  FAIR      47  35  63 N6        30.03R                  
$$
 
ANZALL-191000-
MARINE OBSERVATIONS
  
STATION/POSITION TIME  TEMP    WIND        PRES    VSBY  WAVE
                       AIR SEA DIR/SP/G                  HT/PER
                 (UTC) (F)     (DEG/KT/KT) (MB)    (MI)  (FT/S)
BOSTON BUOY      0750   49 56  300/ 17/ 21 1012.8          2/ 3
BUZZARDS BAY     0800   47     320/ 17/ 18 1015.4R
NANTUCKET SOUND  0830      56                N/A
MASS BAY-STELLWA 0804   48 55  300/ 17/ 21 1012.7S  1 7/8  2/ 3
ISLE OF SHOALS   0800   46     280/ 14/ 15 1012.7S
S OF BLOCK IS    0830      61                N/A           4/ 4
$$

......................KEY.........................
  SKY/WX - SKY CONDITION/PRESENT WEATHER
  TMP    - TEMPERATURE IN FAHRENHEIT
  DWPT   - DEWPOINT IN FAHRENHEIT
  RH     - RELATIVE HUMIDITY IN PERCENT
  WIND   - DIRECTION AND SPEED IN MPH
  PRES   - MEAN SEA LEVEL PRESSURE IN INCHES OF HG
  WCI    - WIND CHILL INDEX
  VSB    - VISIBILITY IN MILES
  HX     - HEAT INDEX
  TC     - TEMPERATURE IN CELSIUS
  VRB    - VARIABLE WIND DIRECTION
  N/A    - NOT AVAILABLE
  
      

Other recent Regional Weather Roundups

Tue Oct 22, 2:10am

Tue Oct 22, 2:00am

Tue Oct 22, 1:10am

Tue Oct 22, 1:00am

Tue Oct 22, 12:10am

Tue Oct 22, 12:00am

Mon Oct 21, 11:10pm

Mon Oct 21, 11:00pm

Mon Oct 21, 10:10pm

Mon Oct 21, 10:01pm

Mon Oct 21, 9:10pm

Mon Oct 21, 9:00pm

Mon Oct 21, 8:10pm

Mon Oct 21, 8:00pm

Mon Oct 21, 7:10pm

Mon Oct 21, 7:01pm

Mon Oct 21, 6:10pm

Mon Oct 21, 6:01pm

Mon Oct 21, 5:10pm

Mon Oct 21, 5:01pm

Mon Oct 21, 4:10pm

Mon Oct 21, 4:00pm

Mon Oct 21, 3:10pm

Mon Oct 21, 3:01pm

Mon Oct 21, 2:10pm

Mon Oct 21, 2:00pm

Mon Oct 21, 1:10pm

Mon Oct 21, 1:01pm

Mon Oct 21, 12:10pm

Mon Oct 21, 12:00pm

Mon Oct 21, 11:10am

Mon Oct 21, 11:00am

Mon Oct 21, 10:10am

Mon Oct 21, 10:00am

Mon Oct 21, 9:10am

Mon Oct 21, 9:00am

Mon Oct 21, 7:10am

Mon Oct 21, 7:00am

Mon Oct 21, 6:10am

Mon Oct 21, 6:00am

Mon Oct 21, 5:10am

Mon Oct 21, 5:00am

Mon Oct 21, 4:10am

Mon Oct 21, 4:00am

Mon Oct 21, 3:10am

Mon Oct 21, 3:00am

Mon Oct 21, 2:10am

Mon Oct 21, 2:01am

Mon Oct 21, 1:10am

Mon Oct 21, 1:00am

Mon Oct 21, 12:10am

Mon Oct 21, 12:00am

Sun Oct 20, 11:10pm

Sun Oct 20, 11:00pm

Sun Oct 20, 10:10pm

Sun Oct 20, 10:00pm

Sun Oct 20, 9:10pm

Sun Oct 20, 9:01pm

Sun Oct 20, 8:10pm

Sun Oct 20, 8:00pm

Sun Oct 20, 7:10pm

Sun Oct 20, 7:01pm

Sun Oct 20, 6:10pm

Sun Oct 20, 6:00pm

Sun Oct 20, 5:10pm

Sun Oct 20, 5:00pm

Sun Oct 20, 4:10pm

Sun Oct 20, 4:00pm

Sun Oct 20, 3:10pm

Sun Oct 20, 3:00pm

Sun Oct 20, 2:10pm

Sun Oct 20, 2:01pm

Sun Oct 20, 1:10pm

Sun Oct 20, 1:01pm

Sun Oct 20, 12:10pm

Sun Oct 20, 12:00pm

Sun Oct 20, 11:10am

Sun Oct 20, 11:00am

Sun Oct 20, 10:10am

Sun Oct 20, 10:00am

Sun Oct 20, 9:10am

Sun Oct 20, 9:00am

Sun Oct 20, 8:10am

Sun Oct 20, 8:00am

Sun Oct 20, 7:10am

Sun Oct 20, 7:00am

Sun Oct 20, 6:10am

Sun Oct 20, 6:00am

Sun Oct 20, 5:10am

Sun Oct 20, 5:00am

Sun Oct 20, 4:10am

Sun Oct 20, 4:00am

Sun Oct 20, 3:10am

Sun Oct 20, 3:00am

Sun Oct 20, 2:10am

Sun Oct 20, 2:00am

Sun Oct 20, 1:10am

Sun Oct 20, 1:00am

Sun Oct 20, 12:10am

Sun Oct 20, 12:00am

Sat Oct 19, 11:10pm

Sat Oct 19, 11:00pm

Sat Oct 19, 10:10pm

Sat Oct 19, 10:00pm

Sat Oct 19, 9:10pm

Sat Oct 19, 9:00pm

Sat Oct 19, 8:10pm

Sat Oct 19, 8:00pm

Sat Oct 19, 7:10pm

Sat Oct 19, 7:00pm

Sat Oct 19, 6:10pm

Sat Oct 19, 6:00pm

Sat Oct 19, 5:10pm

Sat Oct 19, 5:00pm

Sat Oct 19, 4:10pm

Sat Oct 19, 4:00pm

Sat Oct 19, 3:10pm

Sat Oct 19, 3:01pm

Sat Oct 19, 2:10pm

Sat Oct 19, 2:00pm

Sat Oct 19, 1:10pm

Sat Oct 19, 1:01pm

Sat Oct 19, 12:10pm

Sat Oct 19, 12:00pm

Sat Oct 19, 11:10am

Sat Oct 19, 11:01am

Sat Oct 19, 10:10am

Sat Oct 19, 10:00am

Sat Oct 19, 9:10am

Sat Oct 19, 9:00am

Sat Oct 19, 8:10am

Sat Oct 19, 8:00am

Sat Oct 19, 7:10am

Sat Oct 19, 7:00am

Sat Oct 19, 6:10am

Sat Oct 19, 6:00am

Sat Oct 19, 5:10am

Sat Oct 19, 4:10am

Sat Oct 19, 4:00am

Sat Oct 19, 3:10am

Sat Oct 19, 3:00am

Meta data:

ID: a8c22b43-e79d-4966-86e8-3fe414a13add
Link: https://api.weather.gov/products/a8c22b43-e79d-4966-86e8-3fe414a13add